Regional Weather Roundup
Issued by NWS

Home | Current Version | Previous Version | Text Only | Print | Product List | Glossary Off
Versions: 1 2 3 4 5 6 7 8 9 10 11 12 13 14 15 16 17 18 19 20 21 22 23 24 25 26 27 28 29 30 31 32 33 34 35 36 37 38 39 40 41 42 43 44 45 46 47 48 49 50

000
ASUS43 KMKX 031221
RWRWI

WISCONSIN REGIONAL WEATHER ROUNDUP
NATIONAL WEATHER SERVICE MILWAUKEE/SULLIVAN WI
700 AM CDT WED JUN 03 2015

NOTE: "FAIR" INDICATES FEW OR NO CLOUDS BELOW 12,000 FEET WITH NO
SIGNIFICANT WEATHER AND/OR OBSTRUCTIONS TO VISIBILITY.

WIZ001-002-006>008-014>016-023>028-031300-
NORTHWEST WISCONSIN

CITY           SKY/WX    TMP DP  RH WIND       PRES   REMARKS
SUPERIOR ARPT  DRIZZLE   49  47  92 E7        29.89F
6HR MIN TEMP:  44; 6HR MAX TEMP:  49; 6HR PCP:  0.05;

ASHLAND        CLOUDY    59  55  87 NW5       29.93R
6HR MIN TEMP:  54; 6HR MAX TEMP:  62; 6HR PCP:  0.07;

HAYWARD        CLOUDY    59  53  80 SE9       29.92F
6HR MIN TEMP:  59; 6HR MAX TEMP:  62; 6HR PCP:  0.01;

SIREN          CLOUDY    63  54  72 S10       29.88F
6HR MIN TEMP:  63; 6HR MAX TEMP:  64;

CUMBERLAND     CLOUDY    59  52  77 SE9       29.92F
RICE LAKE      CLOUDY    58  51  78 SE8       29.94F
6HR MIN TEMP:  57; 6HR MAX TEMP:  61;

CHETEK         CLOUDY    56  52  87 E5        29.94F
6HR MIN TEMP:  56; 6HR MAX TEMP:  61;

LADYSMITH      CLOUDY    57  49  74 SE6       29.99S
6HR MIN TEMP:  55; 6HR MAX TEMP:  60;

EAU CLAIRE     CLOUDY    59  51  75 SE9       29.95F
6HR MIN TEMP:  56; 6HR MAX TEMP:  62;

MENOMONIE      CLOUDY    60  54  79 E6        29.93F
6HR MIN TEMP:  55; 6HR MAX TEMP:  59;

NEW RICHMOND   CLOUDY    61  54  75 S12       29.89F
6HR MIN TEMP:  60; 6HR MAX TEMP:  62;

OSCEOLA        CLOUDY    63  55  77 SE8       29.90F
6HR MIN TEMP:  62; 6HR MAX TEMP:  64;

$$

WIZ003>005-009-010-017-018-031300-
NORTH CENTRAL WISCONSIN

CITY           SKY/WX    TMP DP  RH WIND       PRES   REMARKS
MANITOWISH WTR PTSUNNY   55  48  78 S8        29.98F
6HR MIN TEMP:  53; 6HR MAX TEMP:  57;

ARBOR VITAE    MOSUNNY   57  49  74 SW8       30.00S
6HR MIN TEMP:  53; 6HR MAX TEMP:  59;

WOODRUFF       MOSUNNY   57  49  74 SW8       30.00S
6HR MIN TEMP:  53; 6HR MAX TEMP:  59;

RHINELANDER    MOSUNNY   57  46  66 SW10      30.02S
6HR MIN TEMP:  48; 6HR MAX TEMP:  57;

EAGLE RIVER    SUNNY     56  44  62 S7        30.01R
6HR MIN TEMP:  50; 6HR MAX TEMP:  56;

LAND O LAKES   MOSUNNY   54  45  70 S7        30.01S
6HR MIN TEMP:  51; 6HR MAX TEMP:  56;

PHILLIPS       MOSUNNY   56  48  75 S8        29.98S
6HR MIN TEMP:  53; 6HR MAX TEMP:  59;

TOMAHAWK       MOSUNNY   53  47  81 S3        30.02F
6HR MIN TEMP:  46; 6HR MAX TEMP:  55;

MEDFORD        SUNNY     53  47  82 S8        30.01F
6HR MIN TEMP:  49; 6HR MAX TEMP:  57;

MERRILL        MOSUNNY   55  47  73 S6        30.03S
$$

WIZ029-030-035-036-043>047-031300-
CENTRAL WISCONSIN

CITY           SKY/WX    TMP DP  RH WIND       PRES   REMARKS
WAUSAU         SUNNY     54  46  74 SE5       30.02R
6HR MIN TEMP:  50; 6HR MAX TEMP:  56;

MOSINEE        NOT AVBL
MARSHFIELD     MOSUNNY   55  48  77 S8        30.02S
6HR MIN TEMP:  49; 6HR MAX TEMP:  55;

STEVENS POINT  SUNNY     56  46  70 S9        30.04S
6HR MIN TEMP:  45; 6HR MAX TEMP:  56;

WAUPACA        SUNNY     54  48  81 CALM      30.06R
6HR MIN TEMP:  47; 6HR MAX TEMP:  54;

WAUTOMA        SUNNY     53  50  90 CALM      30.06S
6HR MIN TEMP:  45; 6HR MAX TEMP:  55;

WISC RAPIDS    MOSUNNY   57  46  66 S3        30.05R
6HR MIN TEMP:  46; 6HR MAX TEMP:  57;

CAMP DOUGLAS   MOSUNNY   54  54 100 E3        30.02S
6HR MIN TEMP:  42; 6HR MAX TEMP:  54;

$$

WIZ011>013-019>022-031-037>040-048>050-031300-
NORTHEAST WISCONSIN

CITY           SKY/WX    TMP DP  RH WIND       PRES   REMARKS
ANTIGO         SUNNY     53  46  79 SW7       30.05R
SHAWANO        SUNNY     56  48  73 CALM      30.06R
6HR MIN TEMP:  50; 6HR MAX TEMP:  56;

OCONTO         MOSUNNY   56  50  80 S6        30.06R
6HR MIN TEMP:  49; 6HR MAX TEMP:  56;

STURGEON BAY   MOSUNNY   57  45  62 S13       30.09S
6HR MIN TEMP:  48; 6HR MAX TEMP:  55;

GREEN BAY      MOSUNNY   54  47  77 S9        30.06S
6HR MIN TEMP:  48; 6HR MAX TEMP:  54;

MANITOWOC      MOSUNNY   54  46  74 S9        30.09S
6HR MIN TEMP:  47; 6HR MAX TEMP:  54;

APPLETON       PTSUNNY   55  48  76 S8        30.07R
CLINTONVILLE   SUNNY     55  46  71 S6        30.06R
OSHKOSH        SUNNY     54  48  80 S6        30.07R
6HR MIN TEMP:  47; 6HR MAX TEMP:  54;

$$

WIZ032>034-041-042-053>061-031300-
SOUTHWEST WISCONSIN

CITY           SKY/WX    TMP DP  RH WIND       PRES   REMARKS
LA CROSSE      SUNNY     61  53  75 S6        29.98S
6HR MIN TEMP:  58; 6HR MAX TEMP:  63;

SPARTA         SUNNY     56  49  78 CALM      30.01S
6HR MIN TEMP:  48; 6HR MAX TEMP:  56;

VIROQUA        SUNNY     58  51  76 S8        30.02S
6HR MIN TEMP:  55; 6HR MAX TEMP:  59;

BOSCOBEL       MOSUNNY   57  53  86 CALM      30.02S
6HR MIN TEMP:  49; 6HR MAX TEMP:  57;

PRAIRIE DU CHI SUNNY     57  51  78 E7        30.01S
6HR MIN TEMP:  53; 6HR MAX TEMP:  58;

PLATTEVILLE    MOSUNNY   58  52  81 SE9       30.03S
6HR MIN TEMP:  55; 6HR MAX TEMP:  60;

$$

WIZ056-057-062-063-064-067-068-031300-
SOUTH CENTRAL WISCONSIN

CITY           SKY/WX    TMP DP  RH WIND       PRES   REMARKS
REEDSBURG      SUNNY     56  50  80 CALM      30.04S
6HR MIN TEMP:  52; 6HR MAX TEMP:  56;

BARABOO/DELLS  SUNNY     56  49  77 S9        30.05R
6HR MIN TEMP:  52; 6HR MAX TEMP:  56;

LONE ROCK      MOSUNNY   58  50  75 E6        30.05R
6HR MIN TEMP:  52; 6HR MAX TEMP:  58;

MINERAL POINT  MOSUNNY   57  52  82 SE8       30.04S
MADISON        PTSUNNY   59  50  72 S9        30.06R
6HR MIN TEMP:  56; 6HR MAX TEMP:  59;

MIDDLETON      SUNNY     60  50  68 S9        30.06R
6HR MIN TEMP:  57; 6HR MAX TEMP:  60;

WATERTOWN      SUNNY     54  51  90 CALM      30.07R
6HR MIN TEMP:  48; 6HR MAX TEMP:  54;

MONROE         SUNNY     55  52  88 S8        30.06R
JANESVILLE     NOT AVBL
$$

WIZ051-052-058>065-066-070>072-031300-
SOUTHEAST WISCONSIN

CITY           SKY/WX    TMP DP  RH WIND       PRES   REMARKS
MILWAUKEE      PTSUNNY   53  46  77 SE7       30.08F
6HR MIN TEMP:  47; 6HR MAX TEMP:  53;

WAUKESHA       SUNNY     52  45  76 SE3       30.10R
MILWAUKEE/TIMM SUNNY     54  45  71 CALM      30.08F
RACINE         SUNNY     56  48  74 S7        30.10S
6HR MIN TEMP:  48; 6HR MAX TEMP:  56;

BURLINGTON     SUNNY     48  47  97 CALM      30.08F
6HR MIN TEMP:  42; 6HR MAX TEMP:  48;

KENOSHA        SUNNY     56  51  84 SE6       30.08F
6HR MIN TEMP:  45; 6HR MAX TEMP:  56;

FOND DU LAC    SUNNY     55  49  80 S6        30.07R
6HR MIN TEMP:  49; 6HR MAX TEMP:  55;

SHEBOYGAN      SUNNY     50  46  86 S3        30.08S
6HR MIN TEMP:  44; 6HR MAX TEMP:  50;

WEST BEND      SUNNY     50  45  81 CALM      30.08S
JUNEAU         SUNNY     53  48  82 SE5       30.08S
6HR MIN TEMP:  50; 6HR MAX TEMP:  53;

$$

LSZ147-162-031300-
LAKE SUPERIOR

STATION/POSITION TIME  TEMP    WIND        PRES    WAVE
                       AIR SEA DIR/SP/G            HT/PER
                 (UTC) (F)     (DEG/KT/KT) (MB)    (FT/S)
W MID LAKE BUOY  1150   43 37  260/ 10/ 17   N/A     0
DEVILS ISLAND    1200   51     120/ 11/ 12   N/A
PORT WING        1120   44      20/ 12/ 23   N/A
SAXON HARBOR     1100   64     210/  7/ 13   N/A
$$

LMZ867-665-643>646-031300-
LAKE MICHIGAN

STATION/POSITION TIME  TEMP    WIND        PRES    WAVE
                       AIR SEA DIR/SP/G            HT/PER



USA.gov is the U.S. government's official web portal to all federal, state and local government web resources and services.